Preview of NWS' New Version of Forecast
This preview is not operational and should not be used for support decisions.

Regional Weather Roundup (RWR)

Issued by National Weather Service (NWS)

                            
000
ASUS45 KABQ 190601
RWRNM 
NEW MEXICO REGIONAL WEATHER ROUNDUP
NATIONAL WEATHER SERVICE ALBUQUERQUE NM
1200 AM MDT FRI APR 19 2019

NOTE: "FAIR" MEANS FEW OR NO CLOUDS BELOW 12,000 FEET AGL WITH NO
       SIGNIFICANT WEATHER OR OBSTRUCTIONS TO VISION.

      THIS PRODUCT IS RELEASED AS TWO VERSIONS.  ONE VERSION NEAR
      THE TOP OF THE HOUR CONTAINING PRELIMINARY DATA FROM ALBUQUERQUE
      AND OTHER STATIONS.  A FINAL VERSION WITH ADDITIONAL DATA IS 
      ISSUED ABOUT 10 MINUTES AFTER THE HOUR.
 
NMZ501-503-504-510>518-190700-
NORTHWEST PLATEAU/NORTHCENTRAL MOUNTAINS
  
CITY           SKY/WX    TMP DP  RH WIND       PRES   REMARKS
FARMINGTON     FAIR      58  21  24 NW13      30.22R                  
6HR MIN TEMP:  54; 6HR MAX TEMP:  73;                                

LOS ALAMOS       N/A     54  12  19 NW7       30.29R                  
SANTA FE       FAIR      48  31  51 S10       30.25R                  
6HR MIN TEMP:  46; 6HR MAX TEMP:  71;                                

TAOS           FAIR      40  14  34 N7        30.30R                  

$$
NMZ402-403-502-505>509-190700-
WESTCENTRAL MOUNTAINS/SOUTHWEST MOUNTAINS
  
CITY           SKY/WX    TMP DP  RH WIND       PRES   REMARKS
GALLUP         FAIR      41  26  55 CALM      30.30S                  
6HR MIN TEMP:  40; 6HR MAX TEMP:  72;                                

GRANTS         FAIR      44  25  48 NW9       30.32S                  
SILVER CITY    FAIR      51  29  42 N10       30.23R                  

$$
NMZ407-409-411-412-190700-
SOUTHERN DESERTS
  
CITY           SKY/WX    TMP DP  RH WIND       PRES   REMARKS
DEMING         FAIR      58  35  42 W8        30.17R                  
6HR MIN TEMP:  58; 6HR MAX TEMP:  77;                                

LAS CRUCES     FAIR      56  23  28 W10       30.17S                  
HOLLOMAN AFB   FAIR      57  33  41 CALM      30.17S                  
ALAMOGORDO     FAIR      57  30  35 NE8       30.16S                  
T OR C         FAIR      65  23  20 NW8       30.18R                  
6HR MIN TEMP:  63; 6HR MAX TEMP:  76;                                


$$
NMZ519>523-190700-
CENTRAL VALLEYS/CENTRAL HIGHLANDS
  
CITY           SKY/WX    TMP DP  RH WIND       PRES   REMARKS
ALBUQUERQUE    FAIR      63  23  21 N10G25    30.22R                  
6HR MIN TEMP:  59; 6HR MAX TEMP:  71;                                

DOUBLE EAGLE   FAIR      56  26  31 NW16      30.22S                  
CLINES CORNERS FAIR      41  31  67 E9        30.31R                  
6HR MIN TEMP:  41; 6HR MAX TEMP:  63;                                

BELEN          FAIR      56  28  34 CALM      30.22R                  
6HR MIN TEMP:  54; 6HR MAX TEMP:  69;                                

SOCORRO        NOT AVBL                                               

$$
NMZ524>526-539-540-190700-
SOUTHCENTRAL MOUNTAINS
  
CITY           SKY/WX    TMP DP  RH WIND       PRES   REMARKS
RUIDOSO        FAIR      55  19  24 N3        30.28R                  

$$
NMZ527>531-190700-
NORTHEAST HIGHLANDS/NORTHEAST PLAINS
  
CITY           SKY/WX    TMP DP  RH WIND       PRES   REMARKS
LAS VEGAS      FAIR      38  33  82 E3        30.29R                  
6HR MIN TEMP:  36; 6HR MAX TEMP:  66;                                

RATON          FAIR      39  30  70 NE3       30.26S                  
6HR MIN TEMP:  39; 6HR MAX TEMP:  57;                                

CLAYTON        FAIR      38  24  57 NW3       30.24R                  
6HR MIN TEMP:  36; 6HR MAX TEMP:  58;                                


$$
NMZ532>537-190700-
EASTCENTRAL PLAINS
  
CITY           SKY/WX    TMP DP  RH WIND       PRES   REMARKS
SANTA ROSA     FAIR      51  34  52 NE13      30.22R                  
TUCUMCARI      FAIR      45  36  70 NE7       30.20R                  
6HR MIN TEMP:  45; 6HR MAX TEMP:  69;                                

CANNON AFB     FAIR      47  35  63 NE9       30.21R                  
6HR MIN TEMP:  47; 6HR MAX TEMP:  68;                                

CLOVIS AIRPORT FAIR      44  36  73 NE8       30.21R                  

$$
NMZ028-029-538-190700-
SOUTHEAST PLAINS
  
CITY           SKY/WX    TMP DP  RH WIND       PRES   REMARKS
ROSWELL        FAIR      57  35  43 NE14      30.14R                  
6HR MIN TEMP:  56; 6HR MAX TEMP:  74;                                

ARTESIA        FAIR      54  32  43 N9        30.12R                  
CARLSBAD       FAIR      59  35  40 SE6       30.08R                  
6HR MIN TEMP:  59; 6HR MAX TEMP:  75;                                

HOBBS          FAIR      57  34  41 NE16G22   30.18R                  


$$